Theta_e
322 322 322 322 322 321 321 320 325 328 330 328 322 327 326 323 328 331 331 330 333 333 331 330 327 327 330 331 333 334 333 335 337 338 339 332 327 329 327 325 327 326 332 336 334 335 335 335 334 332 331 330 329 328 328 329 330 330 330 330 330 329 326 322 316 316 317 318 322 322 316 313 310 311 314 315 314 313 313 313 313 313 313 313 313 313 313 313 312 312 312 312 312 312 312 312 312
321 322 322 321 322 321 321 321 329 333 330 325 321 325 323 323 327 335 337 334 335 333 331 331 329 329 331 332 332 333 333 334 331 333 334 327 327 328 324 321 324 324 330 334 332 333 333 333 333 332 331 331 329 327 326 327 328 327 327 326 325 323 321 317 314 317 317 320 327 326 321 315 310 314 317 315 314 312 313 313 313 313 313 313 313 313 313 313 313 312 312 312 312 312 312 312 312
321 322 321 322 323 320 323 322 327 332 328 325 326 327 325 327 333 338 335 332 333 332 333 332 332 332 332 334 334 334 334 334 333 333 330 327 327 326 321 316 318 322 329 332 330 332 332 333 333 332 332 332 330 326 323 322 325 326 326 325 323 321 321 317 316 321 320 321 327 328 325 318 312 313 315 313 314 314 313 313 313 313 313 313 313 313 313 313 313 312 312 312 312 312 312 312 312
320 322 322 322 322 321 331 332 330 332 327 327 327 328 332 334 336 334 329 332 334 332 333 333 335 334 333 336 335 334 333 334 334 333 328 327 326 324 319 314 314 318 327 330 329 331 332 334 333 332 333 332 329 323 318 318 320 323 324 323 320 319 322 320 318 322 323 326 329 328 327 320 313 312 313 313 314 314 313 313 313 313 312 313 312 312 312 312 312 312 312 311 312 312 312 312 312
320 322 321 322 323 322 330 329 328 331 324 328 328 328 339 339 334 330 329 335 334 331 332 334 337 334 334 335 333 334 334 333 333 331 326 326 326 324 320 316 312 314 325 329 328 330 332 335 333 333 333 332 328 319 314 313 316 320 321 320 316 318 322 320 317 320 322 328 331 329 327 320 315 313 312 313 313 313 313 313 313 313 312 312 312 312 312 312 311 311 311 312 312 312 312 312 312
320 321 321 322 322 318 324 321 322 329 326 332 332 331 338 333 329 328 330 333 331 331 331 334 336 334 334 334 333 333 333 333 333 331 326 326 326 325 323 318 312 311 323 328 328 329 332 335 334 334 333 332 326 315 311 312 315 317 318 316 313 315 319 319 318 319 319 325 330 328 325 320 316 314 313 313 313 313 312 313 313 312 312 312 312 312 312 311 311 311 311 311 312 312 312 312 312
319 322 321 322 322 319 328 325 326 331 322 325 331 335 334 326 326 328 328 330 331 329 331 334 333 335 336 334 334 332 333 333 333 332 327 327 326 327 325 321 315 310 320 327 326 328 332 334 335 334 333 331 321 312 310 313 315 315 315 312 315 318 317 320 320 319 320 324 328 327 323 320 316 313 313 313 313 313 312 313 312 312 312 312 312 312 312 311 312 311 311 311 311 311 312 312 312
320 322 320 327 329 327 334 328 330 332 318 318 324 330 329 324 326 326 326 328 331 330 331 334 331 336 338 333 334 333 332 332 332 332 328 327 326 327 326 323 318 309 316 324 325 327 331 334 334 334 333 329 318 310 310 313 315 316 315 312 319 324 320 321 322 321 321 322 324 324 322 322 319 314 313 313 313 313 313 313 312 313 312 312 312 312 311 311 311 311 311 311 311 312 312 312 312
320 322 320 326 330 331 338 329 325 324 320 322 322 325 326 325 327 325 324 325 328 330 331 334 331 334 336 332 333 332 331 331 331 332 329 328 327 327 324 321 317 310 312 320 323 325 330 334 334 333 333 327 316 309 310 311 314 316 316 316 320 322 321 322 321 320 321 323 321 323 324 322 321 316 312 313 313 313 313 312 312 312 312 312 312 311 311 311 311 311 311 311 311 312 312 312 312
321 322 320 326 331 328 331 328 324 322 321 322 321 324 326 326 326 323 324 326 328 332 332 333 330 331 334 332 333 332 331 331 331 332 329 327 328 327 324 318 314 310 311 316 321 323 329 334 334 333 332 327 316 310 309 309 311 313 312 317 320 318 318 318 319 319 320 323 321 323 325 322 322 317 313 312 313 313 313 313 312 312 312 312 311 311 311 311 311 311 311 311 312 312 312 312 313
322 321 321 326 334 329 327 329 332 331 322 319 321 324 326 326 326 321 323 327 329 332 331 331 332 332 332 332 333 332 331 330 330 331 329 328 329 328 323 319 315 310 309 314 317 321 328 333 333 333 333 327 317 310 309 309 309 311 312 314 318 319 316 314 319 320 318 320 320 323 325 325 324 318 314 312 313 313 313 313 312 312 312 311 311 311 311 311 311 311 311 312 312 312 312 312 313
322 324 329 329 331 329 331 331 331 333 327 324 324 323 326 326 324 322 324 327 327 330 331 331 332 332 334 334 333 333 331 331 330 330 329 328 329 327 324 321 318 313 310 313 316 320 327 332 333 333 333 328 318 312 308 309 309 309 313 314 314 316 315 313 316 319 318 317 318 320 322 324 324 319 314 312 313 313 313 313 312 312 312 311 311 311 311 311 311 311 312 312 312 312 312 312 313
322 325 332 328 326 328 328 326 325 328 329 328 324 321 325 326 323 322 324 326 327 331 331 331 330 332 338 335 332 333 331 331 331 331 329 328 327 327 327 322 320 318 313 313 316 321 328 331 332 333 333 328 319 314 309 308 309 308 312 314 313 312 312 312 313 319 321 318 319 321 320 320 320 318 314 312 313 313 313 313 312 312 312 311 311 311 311 311 311 312 312 312 312 312 312 312 313
321 323 330 328 325 327 327 323 322 325 329 329 321 319 324 325 323 321 324 328 327 329 329 329 330 332 336 334 334 333 332 331 331 332 331 330 328 327 329 325 321 321 317 315 316 320 328 330 331 333 332 329 321 315 311 308 309 309 309 311 311 310 310 311 311 316 318 316 319 322 320 317 316 316 314 313 313 313 313 312 312 312 312 311 311 312 311 311 312 312 312 312 312 312 313 313 313
321 321 329 331 325 326 327 323 322 326 332 328 319 319 322 323 322 321 324 329 327 326 326 329 331 331 331 335 336 332 331 332 331 333 332 331 331 329 330 327 323 322 319 317 317 319 326 329 330 333 332 328 323 318 313 309 308 308 308 309 309 309 309 310 310 312 313 313 315 318 318 316 315 315 314 313 313 313 313 312 312 312 312 311 311 312 312 312 312 312 312 312 312 312 313 313 313
322 321 328 331 325 326 325 322 323 326 328 321 318 320 321 322 321 322 324 326 326 325 327 330 332 331 328 330 331 330 332 332 331 333 333 332 332 331 331 330 326 325 323 320 319 319 322 327 329 332 333 328 324 321 315 311 309 307 308 309 309 310 309 309 309 310 311 311 312 314 314 314 314 314 314 313 312 313 313 312 312 312 312 311 312 312 312 312 312 312 312 312 312 312 313 313 313
320 322 329 330 326 327 325 323 323 325 327 319 316 320 321 322 320 321 324 323 325 327 329 330 331 330 327 328 329 331 332 331 331 333 333 333 333 332 332 331 328 327 326 323 320 319 321 326 328 329 332 329 326 324 318 312 310 308 308 308 309 309 309 309 309 309 309 310 311 312 312 313 313 313 313 313 312 313 313 312 312 312 312 312 312 312 312 312 312 312 312 312 312 312 313 312 313
321 327 331 328 328 330 328 325 320 320 325 318 316 320 321 323 320 321 324 324 325 328 330 329 330 330 329 328 329 332 332 331 331 331 333 332 333 333 332 331 330 328 327 326 321 319 320 322 325 327 330 330 327 325 320 314 310 309 307 307 308 309 309 309 309 309 309 309 311 312 312 312 312 312 313 312 312 313 312 312 312 312 312 312 312 312 312 312 312 312 312 313 312 312 312 312 312
322 330 328 328 333 328 321 321 316 317 321 317 317 319 320 322 320 322 326 326 326 329 329 326 328 329 329 327 329 332 332 332 331 331 332 332 333 333 332 332 331 328 327 327 322 320 320 320 322 325 327 330 327 324 320 314 310 309 307 307 308 308 309 309 309 309 309 309 310 312 312 312 312 312 312 312 312 312 312 312 312 312 312 312 312 313 313 312 312 312 313 313 313 312 312 312 313
321 326 328 331 330 321 315 316 316 317 318 317 318 319 319 320 320 322 324 325 325 327 327 325 325 326 326 326 327 332 332 332 331 331 331 331 332 332 333 332 331 329 326 326 323 321 321 319 321 323 325 327 326 323 319 314 310 308 308 307 308 309 309 309 309 309 309 309 309 311 312 312 312 312 312 312 312 312 312 312 312 312 312 312 312 313 313 313 313 313 313 313 313 313 313 313 313
320 323 329 330 322 318 317 315 315 316 316 317 318 318 319 319 321 322 321 326 327 325 324 324 324 322 323 324 326 329 331 332 331 331 331 331 332 332 332 332 331 330 326 325 324 322 320 319 320 322 323 323 323 321 317 314 310 308 308 307 308 309 309 309 309 309 309 309 309 310 311 312 312 312 313 312 312 312 312 312 312 312 312 312 312 313 313 313 313 313 313 313 313 313 313 314 314
321 321 323 321 316 317 317 313 315 316 316 317 317 319 320 319 320 321 321 327 328 323 322 322 322 321 321 321 323 327 329 330 331 331 331 331 332 332 332 331 331 330 327 325 323 322 320 319 321 321 320 320 320 318 316 314 310 308 308 308 308 309 309 309 309 309 309 309 309 309 310 312 312 312 312 312 312 312 312 312 312 312 312 312 312 313 313 313 313 313 313 313 314 314 314 314 314
325 323 319 317 315 316 315 313 315 315 316 317 316 319 319 317 319 319 320 323 323 321 321 321 321 321 319 319 321 323 326 328 329 328 328 330 331 331 331 331 330 330 329 325 322 322 320 320 322 321 319 318 317 315 315 313 309 308 308 308 308 309 309 309 309 309 309 309 309 309 310 311 312 312 312 312 312 311 312 312 312 312 312 312 312 313 313 313 313 313 313 314 314 314 314 315 315
326 327 321 318 317 316 315 313 314 315 316 317 317 318 317 318 320 317 318 321 321 320 319 319 320 320 319 320 321 321 323 325 326 325 326 328 330 330 330 330 330 330 329 326 322 321 321 321 322 321 319 318 316 313 312 311 309 308 308 308 308 308 309 309 309 309 309 309 309 309 309 310 311 312 312 312 312 312 312 311 312 312 312 312 313 313 313 314 314 314 314 315 315 315 315 315 316
324 326 322 319 319 316 314 314 315 314 315 316 316 316 315 317 317 315 317 321 320 320 320 319 319 319 320 321 321 322 323 325 325 326 326 328 330 331 331 330 330 330 329 327 323 321 321 321 321 321 319 318 315 312 311 310 309 309 309 309 308 308 308 309 309 309 309 308 309 308 308 309 310 311 312 312 312 312 311 311 311 311 312 312 313 314 314 314 314 314 315 315 315 315 316 316 316
324 324 322 320 319 316 314 314 314 315 315 316 317 317 316 316 316 316 318 320 319 319 319 318 319 319 320 320 321 322 323 324 325 325 324 326 329 330 331 331 330 330 329 327 324 321 321 321 321 320 319 318 315 313 310 310 309 309 309 309 308 308 308 308 308 309 309 308 308 308 308 308 309 310 311 312 312 312 312 311 311 311 312 312 313 314 314 315 315 315 315 315 316 316 316 316 316
325 323 323 321 321 318 315 314 314 316 317 316 319 321 318 316 316 318 319 318 318 318 318 317 318 319 319 320 320 321 323 323 324 324 324 325 327 328 329 331 330 329 328 327 324 322 321 321 320 320 319 318 316 313 310 309 309 309 309 309 308 308 308 308 308 309 309 309 308 308 308 308 309 309 310 311 312 312 312 312 312 312 312 313 313 314 315 315 315 315 315 316 316 316 317 317 317
325 324 324 323 322 321 317 315 315 315 317 316 318 320 318 317 317 319 319 318 318 317 317 317 317 318 318 318 320 321 322 322 324 325 324 323 323 325 328 329 330 329 328 326 324 322 321 321 320 319 318 318 317 315 312 310 309 308 309 309 308 308 308 308 308 308 308 308 309 308 308 308 308 308 309 310 310 311 312 312 312 312 312 313 314 314 315 315 315 315 316 316 317 317 317 318 318
324 325 328 325 322 325 321 316 316 315 317 317 317 320 319 318 318 318 318 318 319 319 318 317 316 317 317 318 319 320 320 322 325 325 323 320 320 321 324 327 329 328 328 326 325 323 322 321 319 318 318 318 318 318 317 315 312 310 308 308 308 308 308 308 308 308 308 308 308 308 308 308 308 308 308 309 309 311 311 312 312 312 313 313 314 315 315 315 315 316 316 317 317 318 318 318 319
325 324 329 329 326 330 325 319 318 315 317 318 318 321 322 321 319 318 319 319 319 319 319 319 318 317 317 317 318 318 319 321 322 322 321 321 319 319 320 323 327 328 327 326 325 323 321 321 319 318 318 318 318 318 319 319 317 314 311 309 308 308 308 308 308 308 308 308 308 308 308 308 308 308 308 308 309 310 311 312 312 312 313 314 315 315 315 316 316 316 317 317 318 318 319 319 319
330 326 328 330 332 336 328 319 318 317 317 317 320 322 322 325 324 320 321 320 320 320 320 320 319 318 317 317 317 317 318 319 319 319 321 321 320 319 318 320 323 326 327 326 325 323 322 321 320 320 319 319 320 319 320 320 320 318 315 311 309 309 309 309 308 308 308 308 308 308 308 308 308 309 309 308 309 310 312 312 312 313 314 314 315 315 316 316 316 316 317 318 319 319 319 319 319
330 331 331 330 333 337 330 319 317 320 320 317 321 324 325 327 324 323 324 322 320 319 320 322 321 320 318 317 318 317 318 318 319 319 320 321 320 319 318 318 319 322 326 327 326 325 324 323 321 320 320 320 321 321 320 320 320 319 317 315 312 310 310 309 309 309 309 308 308 308 308 308 308 309 309 308 309 310 311 312 313 314 314 315 315 316 316 316 316 317 318 318 319 319 319 319 319
327 330 334 331 332 333 331 323 317 320 322 318 321 325 328 326 318 320 323 322 321 318 319 320 320 321 319 318 318 317 318 318 319 318 318 319 320 319 318 317 317 318 322 325 326 325 325 324 323 322 321 321 322 322 321 320 320 320 318 317 315 313 312 311 310 310 310 310 309 308 308 308 309 309 309 309 309 309 311 312 313 314 315 315 315 316 316 316 317 318 319 319 319 319 319 319 320
327 328 331 331 332 330 332 331 320 319 323 322 322 323 326 325 317 318 320 321 322 319 319 320 320 321 320 319 318 318 318 318 318 318 318 318 318 319 318 317 316 316 317 321 324 326 326 325 325 324 323 323 323 323 323 321 320 320 319 318 317 316 315 313 313 312 311 311 310 309 309 309 309 309 309 309 309 309 310 312 313 314 315 315 315 316 316 317 318 318 319 319 319 319 319 319 320
328 328 330 331 332 330 331 333 323 320 324 325 324 322 323 324 320 320 320 320 321 320 321 321 320 320 320 320 319 319 319 319 320 320 319 318 317 319 318 318 317 316 315 317 320 324 325 325 325 325 325 325 324 325 324 323 321 320 319 319 318 318 317 316 315 313 313 312 311 311 310 309 309 309 309 309 309 309 310 311 312 313 314 315 315 316 317 318 318 319 319 318 319 319 319 319 320
328 327 330 331 333 330 328 330 323 320 324 324 325 324 322 323 321 321 322 320 319 320 320 320 320 319 319 320 320 321 320 321 323 321 320 319 318 318 318 318 317 316 316 315 316 319 322 324 325 325 325 325 325 325 325 324 322 321 320 319 319 318 318 317 316 316 314 314 313 312 312 311 310 310 310 310 310 310 310 310 311 313 314 315 316 317 318 318 319 319 319 319 319 318 319 319 319
327 328 331 331 332 331 328 328 322 318 323 325 324 324 323 323 322 321 321 319 318 318 319 319 320 320 319 320 320 321 321 322 323 322 321 320 319 318 318 319 318 318 316 315 315 315 318 321 323 324 324 325 325 325 324 324 323 322 321 320 319 319 318 318 317 317 316 315 314 314 313 313 312 311 311 311 311 311 311 312 312 314 316 317 318 318 318 319 319 319 319 318 318 318 318 318 319
327 328 330 330 331 331 328 327 321 317 322 327 324 324 324 322 322 321 319 318 317 317 318 318 319 320 321 321 322 322 322 322 322 322 322 321 320 320 319 319 319 318 317 316 315 314 315 317 318 320 322 323 324 324 323 323 323 322 321 321 320 320 319 318 318 317 317 316 316 316 315 315 314 313 313 313 313 313 313 313 314 315 317 318 318 319 319 319 319 318 318 318 318 318 318 318 318
328 328 329 330 330 329 327 323 318 316 323 328 325 323 322 321 321 320 317 317 318 318 319 319 320 320 321 322 323 323 324 323 321 321 322 322 321 320 320 319 319 318 317 316 316 315 314 314 315 316 318 319 320 322 322 321 321 321 321 321 321 321 321 320 320 319 318 318 318 317 317 317 316 315 315 314 314 314 314 315 315 316 317 318 318 319 319 319 319 318 318 318 318 317 317 318 318
329 329 329 330 329 329 332 326 317 316 321 322 321 321 321 320 321 319 317 316 317 318 318 319 319 319 321 322 323 323 324 325 323 321 320 321 321 321 320 320 320 319 317 317 316 316 315 314 314 314 314 316 316 318 318 318 319 320 320 320 320 321 321 321 321 321 320 319 319 318 318 318 318 317 317 316 316 315 315 315 316 316 317 318 318 318 319 318 318 318 318 317 317 317 318 319 318
327 328 328 330 330 329 329 326 319 317 320 318 319 325 326 325 327 324 320 317 316 316 316 317 318 319 321 321 320 322 323 324 325 323 321 319 320 321 321 321 321 319 318 317 316 316 315 314 314 314 314 314 314 315 315 316 317 318 319 320 320 320 320 320 320 319 319 319 318 318 318 318 318 318 318 318 317 317 317 317 317 317 317 318 318 318 318 318 318 318 318 318 318 318 319 319 320
329 328 327 329 331 327 322 322 322 324 328 322 320 330 335 333 333 329 325 323 320 316 313 315 317 319 319 319 320 322 323 324 325 325 323 320 319 320 321 321 320 319 318 317 316 316 315 315 315 314 314 314 314 314 314 315 316 316 317 317 318 318 317 316 316 316 317 317 317 317 318 318 318 319 319 318 318 318 318 317 317 317 317 318 318 318 318 318 318 318 318 318 319 319 321 321 322
330 329 329 330 330 327 322 323 326 329 331 323 318 329 337 333 331 333 332 330 326 319 315 314 316 318 317 318 322 323 323 324 324 325 325 323 320 318 319 319 319 318 317 317 317 316 315 315 315 315 315 314 314 314 314 315 315 315 316 316 316 316 315 314 314 314 315 315 316 317 317 317 318 319 320 320 320 320 319 319 319 318 318 318 318 318 318 318 319 319 320 321 322 323 323 323 323
331 328 329 330 329 328 324 324 328 327 325 321 318 324 332 330 329 332 331 329 327 324 321 317 314 316 318 317 320 323 324 325 324 325 325 325 323 320 318 318 318 318 318 317 317 317 316 315 315 315 315 315 315 315 315 315 315 315 315 316 316 315 314 313 313 314 314 315 315 315 315 316 317 317 318 319 319 320 320 320 320 320 320 320 320 320 320 321 321 322 322 323 324 325 325 325 324
328 325 328 329 328 328 324 324 326 324 324 326 321 320 329 333 330 327 324 326 328 326 325 321 316 317 318 319 321 322 323 324 324 325 325 325 325 324 322 320 319 318 318 318 318 317 316 316 315 315 315 315 315 315 315 315 315 315 316 316 315 314 313 313 314 314 314 314 314 313 314 314 315 315 316 317 317 318 318 319 319 319 319 320 320 321 321 322 322 323 323 324 324 325 324 324 323
322 321 324 325 325 325 322 324 326 324 327 330 324 321 328 333 331 327 324 327 329 326 325 322 317 317 319 320 321 322 323 323 322 323 324 324 325 325 325 323 322 320 319 319 318 318 317 316 316 316 315 315 314 314 315 315 315 316 316 316 315 314 314 314 315 314 313 313 313 313 314 314 314 315 315 316 316 317 317 317 317 317 317 318 318 319 319 320 320 321 322 322 323 324 324 323 323
320 323 326 325 326 327 326 327 327 327 329 330 325 324 328 332 331 330 328 327 328 326 327 327 320 318 319 320 320 321 322 322 322 321 321 322 323 323 323 323 324 323 321 320 319 318 318 317 317 316 315 315 315 315 315 314 315 316 315 315 315 314 314 315 315 314 314 314 313 313 314 314 315 315 316 316 317 317 318 318 318 318 318 319 319 319 319 318 319 319 320 321 322 323 323 323 323
324 330 330 328 328 327 328 328 326 328 331 329 324 323 327 332 332 332 330 327 327 327 328 332 326 318 319 319 319 319 320 321 320 320 320 321 321 321 322 322 323 323 323 322 320 320 319 318 317 317 317 317 316 316 315 315 315 315 315 314 314 314 314 315 314 313 314 314 314 314 315 315 315 316 316 317 318 318 319 319 319 320 320 320 320 320 320 320 320 320 320 320 321 322 323 323 323
329 330 329 331 330 328 329 329 327 330 330 324 320 322 326 328 328 329 329 326 326 322 319 323 321 316 318 321 319 319 319 319 320 320 321 321 321 321 321 322 322 322 323 323 322 321 320 319 318 318 318 318 317 316 315 315 315 315 315 314 314 314 315 314 313 313 313 313 314 315 315 315 316 317 318 318 319 320 321 321 321 322 321 321 321 321 321 321 321 321 321 321 321 322 322 322 322
328 327 328 332 331 331 333 330 329 332 328 321 319 322 327 329 327 325 326 324 323 319 315 316 317 316 319 321 321 321 320 320 321 321 320 320 321 321 320 321 322 322 322 322 322 321 320 320 319 318 319 318 317 317 316 315 315 315 315 315 315 315 314 314 313 313 313 314 314 315 315 316 316 317 318 318 320 321 322 323 323 323 322 323 323 323 323 322 322 322 322 323 323 323 323 323 322
326 327 329 330 330 334 335 332 333 332 326 321 320 324 331 333 329 323 319 318 317 317 317 316 316 317 318 318 319 321 321 321 322 320 318 318 320 321 320 320 322 322 321 321 322 322 320 320 320 319 319 319 318 317 316 316 315 315 315 315 315 315 314 314 313 313 314 314 314 315 315 315 316 316 317 319 320 322 322 323 323 323 323 323 323 324 324 324 323 323 323 323 323 324 324 324 323
326 328 331 329 329 333 331 327 329 329 328 325 322 325 329 329 326 321 318 318 316 316 317 315 316 318 317 317 318 319 321 322 321 319 317 318 320 320 320 320 321 322 321 321 321 322 321 320 320 320 320 319 318 317 317 316 316 315 316 316 316 316 315 315 314 314 314 314 315 315 315 315 316 316 317 319 321 322 322 323 323 323 324 323 323 323 323 323 323 323 324 324 324 323 324 324 325
326 328 330 327 327 331 329 323 322 325 330 330 325 326 329 328 327 324 324 326 323 320 317 313 315 318 316 317 319 319 320 320 319 319 318 319 319 319 319 321 321 321 321 321 321 321 321 320 319 319 319 318 317 317 317 317 316 316 316 316 316 316 316 316 315 315 315 315 316 315 315 316 316 316 317 318 320 322 323 323 324 323 324 324 323 322 322 322 322 322 322 322 322 322 323 324 323
326 328 326 324 325 328 329 327 325 326 330 331 327 327 330 332 331 329 326 325 326 325 321 314 313 314 314 317 319 319 319 319 319 318 318 318 319 319 320 321 321 321 321 321 321 321 321 320 319 318 318 318 318 317 317 317 317 317 317 316 316 316 317 316 316 316 316 316 316 315 316 316 316 316 316 317 319 320 322 323 322 322 322 322 322 322 323 322 321 322 322 322 323 323 323 324 321
322 325 324 326 329 328 326 328 330 329 331 332 326 321 326 329 328 328 326 324 328 329 328 327 321 313 314 317 319 319 319 319 319 318 318 318 319 319 319 320 320 320 320 320 321 320 320 320 320 319 319 319 319 318 317 317 316 316 317 317 317 317 317 317 316 317 317 317 316 316 316 315 315 315 314 315 317 318 320 320 320 321 322 322 322 321 321 321 322 323 321 321 324 325 324 323 321
320 323 324 328 331 329 328 329 329 330 330 332 328 322 326 328 324 327 327 324 327 327 327 332 325 314 314 318 319 319 319 319 319 319 318 318 318 319 319 319 319 319 319 319 320 320 320 320 320 320 320 319 319 318 317 317 317 317 317 317 317 317 317 317 317 317 317 317 316 316 315 314 313 313 312 313 315 315 316 316 317 319 321 321 321 320 320 320 321 322 321 319 320 321 320 320 320
322 325 326 327 326 326 330 329 327 329 330 331 332 328 327 326 322 323 325 322 323 323 324 325 319 315 317 318 318 319 318 318 319 319 319 319 318 319 319 319 318 318 319 319 319 319 319 319 319 319 319 319 319 318 318 318 317 317 317 317 317 317 317 317 317 317 316 316 316 315 314 312 312 311 311 312 312 312 312 313 314 316 317 318 317 317 317 316 316 320 323 321 317 318 321 321 321
323 325 324 325 326 325 330 330 326 326 326 327 329 327 327 327 321 318 321 323 321 319 319 319 315 315 318 318 318 318 318 318 319 318 319 319 318 319 319 318 318 317 317 317 318 318 318 318 318 318 318 317 317 317 317 317 318 317 317 317 317 317 317 317 316 316 316 316 315 314 312 311 311 310 310 310 310 310 310 311 312 312 313 314 313 312 312 312 313 316 319 317 315 318 321 320 319
Wind_Speed
3 4 7 9 10 4 4 3 1 3 4 2 1 1 2 2 1 1 2 1 1 2 3 5 9 16 8 2 5 4 6 6 5 4 2 9 19 21 16 14 16 17 16 15 14 12 12 10 9 9 8 7 6 7 9 10 10 9 9 8 6 5 4 4 2 2 4 7 8 9 10 11 11 11 11 12 13 14 14 14 14 14 14 14 14 13 13 14 15 14 14 14 14 15 15 15 15
4 4 7 9 9 5 3 3 1 2 5 1 2 2 2 0 1 4 6 4 3 5 8 11 14 15 6 4 7 6 5 2 4 7 9 18 22 20 15 13 16 18 17 16 14 13 12 10 10 9 8 6 6 6 7 8 8 8 8 7 6 5 5 4 2 5 8 9 9 9 11 11 11 11 11 12 12 13 14 14 14 14 13 13 13 13 13 13 13 13 12 12 13 14 14 14 14
4 5 7 9 8 4 0 3 2 1 4 2 4 3 1 2 5 6 7 6 11 16 15 14 12 9 3 3 4 3 3 2 5 8 14 23 21 18 15 14 17 18 18 15 14 13 12 11 10 9 7 6 5 6 6 7 8 8 8 8 7 5 4 3 4 7 9 11 10 8 10 11 11 11 12 11 12 13 14 14 14 13 13 13 13 13 12 11 11 11 11 11 12 12 12 12 12
4 5 7 8 5 2 3 3 1 4 3 3 3 4 3 4 7 6 7 12 18 16 11 8 6 4 1 1 2 1 2 3 7 8 16 21 17 17 15 15 17 19 18 15 14 14 13 11 10 9 7 5 5 5 6 8 9 9 10 10 9 6 5 4 6 9 10 11 10 8 9 11 10 10 11 11 12 14 14 13 13 13 12 12 12 11 10 10 10 10 10 10 11 11 11 11 11
5 5 7 8 3 1 3 3 2 4 3 4 2 5 5 5 6 5 9 15 15 8 5 5 3 3 3 2 2 0 2 5 8 10 17 19 17 16 14 15 17 19 19 16 15 14 13 12 10 9 7 5 5 5 7 9 10 11 11 10 9 7 6 5 6 8 11 11 9 8 8 8 8 10 11 11 12 13 13 12 12 12 12 11 10 9 9 9 9 9 9 10 10 10 10 10 10
4 4 6 5 2 2 2 2 2 2 4 5 3 5 5 6 8 8 11 12 9 3 2 4 3 5 4 3 2 3 6 6 7 11 18 19 17 16 13 14 16 18 20 17 15 14 13 12 10 8 7 5 5 5 6 10 11 11 10 8 8 8 6 6 6 8 10 11 9 8 6 5 7 10 11 11 12 12 11 11 11 10 11 10 9 8 8 8 8 8 8 9 9 9 9 9 9
4 4 5 2 3 3 2 2 3 3 3 4 3 4 5 8 11 10 9 7 5 5 4 4 6 6 3 3 3 5 6 6 7 10 17 17 16 15 13 13 14 18 19 17 16 14 13 12 10 8 7 6 6 5 5 9 10 10 10 8 8 7 6 6 6 7 9 10 10 7 6 6 8 10 11 11 11 11 10 10 10 9 10 9 8 7 7 7 8 8 8 8 9 8 8 8 9
3 4 4 2 2 4 3 1 3 3 2 3 3 4 7 12 14 11 7 4 4 5 6 7 7 4 2 4 4 6 5 6 8 10 17 17 16 14 11 12 12 16 19 18 16 14 14 12 10 8 7 6 6 5 5 7 9 9 9 9 8 7 6 6 6 7 8 9 9 8 6 7 9 10 10 10 10 10 10 9 9 9 9 8 7 7 7 7 7 7 7 8 8 8 8 8 9
4 4 2 2 1 2 2 1 3 3 3 4 3 3 8 13 13 10 5 2 4 6 8 12 6 0 5 5 4 7 6 7 8 11 17 15 14 12 10 10 9 13 17 18 16 15 14 12 11 8 7 6 6 5 4 5 7 9 9 8 8 7 7 7 7 7 8 8 8 8 7 7 9 10 10 10 9 9 9 9 8 8 8 7 6 6 6 6 6 7 7 7 7 7 7 7 8
3 3 1 2 1 2 3 2 2 3 4 4 3 5 9 12 12 8 5 3 6 8 11 12 2 2 8 5 5 8 7 8 8 12 16 14 12 11 10 9 8 11 14 17 16 15 14 13 11 9 7 6 5 5 4 3 4 7 8 7 6 7 8 7 7 7 8 8 8 8 7 7 8 10 10 10 9 9 9 8 7 7 7 6 5 5 5 5 6 6 6 6 6 6 6 6 6
1 2 2 3 2 1 1 3 3 3 4 4 2 5 8 12 10 5 5 5 7 9 11 9 3 8 9 4 7 8 9 9 9 11 15 14 11 11 10 9 9 11 12 15 16 15 15 13 12 10 8 6 5 5 5 4 4 6 8 8 6 6 7 8 7 7 8 8 9 8 7 7 7 9 10 10 9 8 8 8 7 6 6 5 5 4 4 5 5 5 5 5 5 5 5 5 6
2 1 3 2 2 2 3 2 4 4 5 3 1 5 8 12 8 4 7 6 9 7 9 9 4 9 6 2 8 9 11 10 9 11 14 14 12 11 10 9 9 11 12 14 16 16 15 14 13 11 9 8 7 6 6 5 5 6 7 8 7 6 7 8 7 7 8 9 9 9 8 8 6 8 10 9 8 8 7 7 6 6 5 5 4 4 4 4 4 4 5 5 5 5 5 7 8
4 2 4 1 2 2 3 2 3 3 4 3 3 5 9 11 8 9 10 7 9 6 7 10 6 8 5 2 7 12 13 12 12 11 13 13 12 11 9 9 9 11 13 14 16 16 15 14 13 12 10 10 8 7 7 6 5 6 6 6 7 6 6 7 8 7 7 9 9 9 8 8 7 7 9 9 8 7 7 6 6 5 5 4 4 3 3 3 3 4 4 4 5 5 6 8 10
5 5 5 1 1 2 4 1 2 2 3 5 3 7 10 10 8 10 11 7 9 8 7 11 8 7 4 3 6 13 16 13 14 12 12 13 12 12 9 9 9 11 13 15 16 16 16 14 13 13 12 11 9 8 8 7 6 6 6 5 6 6 6 6 7 6 5 7 8 8 7 7 7 8 9 9 8 7 6 6 5 5 5 4 3 2 2 2 3 3 3 4 4 5 7 9 10
7 7 4 2 2 1 3 2 2 5 5 4 4 8 10 10 7 9 13 8 8 9 8 10 11 6 3 6 4 9 15 14 16 15 13 13 12 12 10 10 10 11 13 15 17 17 17 15 14 14 13 12 10 9 9 8 8 7 7 6 6 6 6 6 6 5 5 6 7 7 6 7 7 8 9 9 9 8 7 6 5 5 4 4 3 2 1 1 2 2 2 3 4 5 6 8 9
8 5 3 2 2 2 3 2 3 4 5 4 7 9 8 8 9 9 12 9 7 10 10 11 15 9 3 7 2 4 14 15 17 17 15 14 13 13 12 12 12 13 13 15 18 18 17 16 15 14 14 13 11 10 10 9 9 8 8 7 7 6 6 6 5 5 6 6 7 7 6 7 7 8 9 9 9 8 8 7 6 5 5 4 3 2 1 0 1 1 2 2 3 4 6 7 9
8 4 3 1 3 3 4 4 4 4 5 5 7 12 8 4 9 10 10 8 7 12 12 11 16 15 6 5 4 4 11 16 17 18 18 17 17 16 16 15 15 16 15 15 18 19 18 17 16 13 13 13 12 12 11 10 10 9 8 8 7 6 6 6 6 5 6 6 7 7 7 7 7 8 8 9 9 9 8 8 7 7 6 5 4 2 2 1 1 1 2 3 4 5 6 7 9
7 3 2 3 3 4 5 7 7 4 3 7 10 14 11 5 9 10 7 6 7 12 14 12 14 17 12 7 6 6 11 16 17 18 20 21 20 20 19 19 18 19 18 16 18 19 19 18 15 13 13 13 12 13 12 12 11 11 9 8 8 7 6 6 6 6 6 6 7 8 8 8 8 8 9 9 9 9 9 9 8 8 7 6 5 3 2 2 2 2 3 4 5 6 7 8 10
5 3 2 4 4 4 6 9 9 5 3 9 11 13 12 7 12 12 5 5 7 8 11 12 13 16 16 12 10 9 12 17 18 19 21 22 23 23 23 22 21 21 20 18 18 20 20 18 16 13 13 13 14 14 14 13 12 12 11 10 9 8 7 7 7 7 7 7 8 8 8 9 9 9 9 10 10 10 10 10 9 9 8 7 6 4 3 3 3 3 3 4 5 7 7 9 10
3 4 3 6 5 4 5 8 9 7 4 9 13 12 11 8 13 14 6 5 5 8 11 12 15 17 16 14 13 12 14 18 20 20 21 22 23 24 24 24 23 23 22 20 19 20 21 19 17 14 14 15 15 15 15 14 13 12 12 11 10 8 7 7 7 8 8 8 9 9 9 10 10 10 11 11 11 11 11 10 10 9 8 7 6 5 4 4 4 4 4 5 6 7 8 9 11
4 5 4 5 6 3 5 7 7 8 6 10 13 9 8 9 13 13 9 5 4 13 19 18 17 16 16 16 15 15 16 20 22 22 22 23 23 23 24 24 22 22 22 21 20 21 21 20 17 15 14 15 16 16 16 14 14 13 12 11 10 9 8 8 8 9 9 10 10 10 10 11 11 11 11 11 11 12 11 11 10 10 9 8 7 6 5 5 5 6 6 6 7 8 9 10 11
5 5 3 4 7 3 4 5 5 8 8 9 12 8 8 11 11 13 12 7 8 14 19 20 19 14 13 15 16 17 19 21 23 23 23 24 24 24 24 24 23 22 22 23 21 21 21 19 17 15 14 15 15 16 16 15 14 13 12 11 11 10 9 9 10 10 10 10 10 11 11 11 12 12 12 12 12 12 12 11 11 10 9 9 8 7 7 6 7 7 7 7 8 9 10 11 12
4 4 3 5 7 3 3 5 5 8 9 10 11 8 10 11 8 12 15 16 15 10 9 12 16 15 12 14 15 17 19 22 24 23 23 23 24 24 24 24 24 23 23 24 22 20 20 19 18 15 13 13 14 14 15 15 15 13 13 12 12 12 11 11 10 10 10 11 11 11 12 12 12 12 12 12 12 12 12 11 11 10 10 10 9 9 8 7 7 8 8 8 9 10 11 12 13
5 3 4 7 7 3 2 5 4 6 9 10 10 7 9 12 7 8 16 25 22 13 9 8 12 16 14 13 14 15 16 20 22 21 21 21 21 21 22 22 22 22 22 23 23 20 19 18 17 15 14 13 12 12 13 14 15 14 13 13 13 13 12 12 11 11 11 12 12 12 12 13 13 13 12 12 12 12 12 12 11 11 11 11 10 10 9 8 8 8 9 9 10 11 12 13 15
5 4 4 7 5 3 3 5 5 4 6 7 8 6 7 12 7 5 16 24 20 18 16 12 10 15 17 15 14 15 16 18 20 21 21 21 21 20 22 22 21 23 23 22 23 21 18 17 16 16 14 13 13 12 13 14 15 14 14 14 14 14 14 13 13 13 12 13 13 13 13 14 14 13 13 12 12 12 12 12 12 12 12 12 11 10 9 9 9 9 10 10 11 12 13 14 16
8 8 6 7 4 4 4 6 5 5 7 7 7 5 4 9 6 7 19 22 16 16 16 14 12 13 16 16 16 16 17 18 19 21 21 21 22 22 23 22 23 23 23 22 23 22 19 18 17 16 15 15 14 14 14 15 15 15 14 15 15 15 15 15 15 15 14 14 14 14 14 14 14 14 13 13 13 13 13 14 13 13 13 12 12 11 10 10 10 11 11 11 12 13 13 15 16
9 11 7 6 4 4 4 6 6 4 5 6 6 5 4 7 5 7 14 16 15 16 15 15 15 15 16 16 17 17 18 18 18 19 21 23 24 24 23 23 24 22 21 24 25 23 21 21 18 16 16 16 15 14 14 15 15 16 15 15 15 15 16 16 17 17 16 15 14 15 15 15 15 15 15 15 14 14 14 14 14 14 13 13 12 11 11 11 11 12 12 12 13 13 14 15 17
8 12 7 2 2 2 3 5 6 5 3 4 4 3 5 5 4 8 12 10 11 15 15 17 18 19 18 17 18 18 19 19 19 22 23 24 24 23 23 24 24 22 23 25 24 24 23 22 19 17 17 16 16 15 14 15 15 16 16 16 16 15 16 17 18 18 18 17 16 16 15 16 16 16 16 15 15 15 15 16 15 15 14 13 13 12 12 13 13 13 13 14 14 14 15 15 16
8 11 5 1 3 2 6 5 5 6 2 3 3 3 8 6 6 12 16 15 13 13 14 17 20 21 21 20 20 21 21 21 22 24 23 22 22 22 23 22 22 23 24 24 23 25 24 22 21 19 19 18 18 16 15 15 15 16 17 17 17 17 18 18 18 18 18 18 18 17 16 17 17 17 16 16 16 16 16 17 17 16 14 14 14 13 14 14 14 14 14 14 14 15 15 15 15
7 5 3 2 3 3 8 7 4 6 3 5 6 3 9 7 10 17 20 21 18 17 17 19 20 22 23 22 23 23 23 23 24 24 22 22 22 22 23 21 22 23 23 24 24 26 25 24 22 21 21 21 19 18 18 17 16 16 17 17 18 19 19 19 19 18 18 18 19 19 18 17 17 17 17 17 17 17 17 18 17 16 14 15 15 15 15 15 15 15 14 15 15 16 15 15 15
4 1 1 2 2 4 6 7 8 6 4 7 8 5 9 3 6 14 18 23 23 22 22 23 22 23 25 25 26 26 25 25 24 23 23 23 23 23 23 22 23 23 23 25 26 26 26 25 25 24 23 22 21 21 20 19 18 18 17 17 18 19 19 19 19 18 18 18 18 19 19 19 18 17 18 18 19 18 18 18 17 16 15 15 16 15 16 16 16 16 15 16 16 16 16 15 15
1 2 1 1 3 4 5 5 13 9 4 8 8 4 8 2 5 11 14 20 23 24 26 26 26 25 26 27 28 28 27 27 26 25 25 25 25 25 24 23 23 24 25 25 26 26 26 26 27 27 26 25 24 23 22 21 20 19 18 17 17 18 19 19 19 18 18 18 19 19 20 20 19 18 18 19 20 20 19 19 17 16 15 16 16 16 17 16 16 16 16 17 17 17 16 16 16
1 3 3 2 4 3 3 2 12 12 5 5 7 6 4 1 5 9 10 13 16 21 26 27 28 28 28 28 28 29 28 28 28 27 27 26 27 26 25 24 24 24 24 25 26 27 27 27 27 28 28 26 25 24 23 23 22 21 20 19 18 18 19 19 19 19 19 19 19 20 20 21 20 19 19 19 20 21 20 19 17 16 16 17 17 17 18 17 17 18 17 18 18 18 18 18 17
3 2 2 2 3 3 2 3 7 9 5 5 8 9 9 3 2 4 4 7 10 16 22 25 27 28 30 29 29 29 29 30 29 27 25 26 27 26 26 24 24 24 24 25 26 27 27 27 27 28 27 27 26 25 25 24 23 23 22 21 21 21 21 21 20 20 20 20 20 20 20 21 21 20 20 20 21 21 21 20 18 17 17 18 18 18 18 18 19 19 18 18 19 19 19 19 18
5 5 3 3 3 4 5 4 4 7 6 7 6 9 14 9 7 9 8 8 9 13 17 20 23 25 28 29 31 31 32 33 31 28 25 25 26 27 27 26 25 25 25 25 26 27 28 28 29 29 28 28 27 26 26 26 26 26 26 24 25 25 24 23 23 23 22 21 21 19 19 20 21 21 21 21 22 21 22 21 20 18 18 19 19 19 19 19 20 20 20 19 20 21 21 20 20
9 8 6 6 5 4 4 3 4 7 5 6 8 11 15 12 11 17 22 16 13 16 18 20 23 23 24 26 29 31 34 37 34 30 28 27 27 26 27 27 27 27 26 26 26 27 29 30 31 31 31 30 28 28 28 28 29 29 29 28 29 28 27 26 25 24 23 22 21 19 19 20 21 21 22 22 23 22 22 22 21 20 20 21 21 21 20 20 20 21 21 21 21 22 22 22 22
10 8 6 7 5 5 4 2 3 5 4 6 10 12 15 13 10 15 22 16 13 19 21 24 27 27 27 27 28 30 33 36 34 32 31 30 29 28 27 28 28 29 29 29 29 29 29 30 32 32 32 31 31 32 31 31 31 31 31 31 30 29 28 27 26 25 23 22 22 21 20 20 21 22 22 23 23 23 23 23 22 21 21 22 22 22 21 21 21 22 22 23 24 24 24 23 23
9 7 6 6 6 5 4 2 2 4 3 5 5 9 14 12 9 15 15 9 13 22 23 25 28 30 32 32 33 33 32 31 32 34 34 32 32 32 30 29 30 31 31 31 31 30 30 30 32 33 32 32 34 34 33 33 32 32 31 30 29 29 28 28 27 25 24 24 24 23 23 22 22 22 22 23 23 24 24 24 23 23 22 23 23 23 23 23 23 23 24 25 26 26 26 25 24
8 6 5 6 5 1 3 2 2 2 3 3 1 5 13 10 9 14 16 15 21 28 27 29 30 30 32 35 35 34 32 31 32 33 34 34 34 34 34 33 31 31 32 32 32 31 31 32 32 32 32 33 34 34 34 34 33 32 31 30 29 29 29 29 29 28 28 28 27 26 26 25 25 24 23 23 23 23 24 24 24 23 23 24 25 25 25 26 25 25 26 27 27 28 28 27 26
6 7 6 4 3 2 3 2 2 0 1 1 1 5 10 8 6 11 20 26 28 29 29 30 31 31 34 36 34 33 33 34 33 32 32 32 33 35 36 35 33 32 33 34 34 33 33 34 33 33 32 33 34 34 34 34 32 31 30 30 30 30 31 31 31 31 32 32 31 29 29 28 27 26 25 24 25 25 25 25 25 25 25 25 26 27 28 28 27 28 28 28 29 29 30 29 28
5 6 7 4 4 4 1 0 1 2 3 2 2 6 8 7 7 9 14 18 21 25 25 27 33 35 37 36 34 34 34 34 34 33 31 29 30 33 35 35 34 34 34 34 35 35 35 35 34 33 33 33 33 33 33 32 32 32 31 32 32 33 34 34 35 35 34 33 31 29 29 28 28 28 27 27 27 27 27 27 27 27 27 28 29 29 30 30 30 30 30 30 30 30 30 29 28
3 4 6 6 7 5 3 2 3 3 4 3 1 4 7 3 5 10 7 5 11 15 15 22 33 36 36 36 36 38 36 34 35 35 32 29 28 30 32 34 35 36 35 34 34 35 36 36 35 34 34 34 33 33 32 32 33 33 33 34 35 36 36 36 36 34 32 31 29 28 28 27 28 29 29 29 29 29 29 29 30 30 30 31 31 32 32 33 33 32 32 31 31 30 29 29 29
4 5 7 7 7 6 4 3 1 0 3 3 1 3 7 4 4 8 5 4 11 8 7 18 29 32 32 34 39 39 37 35 35 36 35 33 31 30 31 33 34 36 34 32 33 35 36 36 36 36 36 35 34 34 33 33 34 34 34 35 35 36 37 36 34 32 31 29 29 28 28 28 28 29 29 29 30 30 31 32 32 32 33 33 33 34 35 34 34 33 32 32 31 29 28 29 29
3 5 10 9 7 7 6 5 4 2 2 3 2 2 5 7 6 5 2 5 11 10 10 15 22 29 30 31 36 38 39 38 36 37 36 35 35 34 34 33 33 33 31 30 32 35 36 36 36 37 37 36 35 35 35 34 34 34 35 35 35 35 36 35 33 31 30 29 28 28 27 27 27 27 28 28 28 29 30 31 32 32 33 34 34 35 35 34 33 32 32 31 30 29 28 28 28
2 3 8 8 7 6 5 4 3 1 2 3 2 2 2 7 6 2 2 4 10 12 12 12 17 25 29 30 33 34 36 37 37 39 39 37 37 36 36 35 34 34 31 31 32 34 35 36 36 37 37 36 36 35 36 35 35 35 35 35 35 35 34 33 32 30 29 28 28 27 26 26 26 25 25 25 25 26 27 27 27 29 30 30 31 32 32 31 31 30 30 30 29 29 28 27 28
3 7 9 7 5 5 3 3 3 2 2 6 6 5 3 7 7 2 1 4 10 11 9 9 14 20 24 28 31 31 33 34 33 35 37 38 38 37 37 37 37 37 35 34 33 33 35 35 36 37 36 35 35 35 35 35 34 34 35 35 35 34 33 33 31 29 29 28 27 27 26 26 25 24 24 24 24 24 24 24 25 25 26 26 27 28 28 28 28 28 27 27 27 27 27 26 27
8 9 9 6 6 5 3 2 3 1 5 6 9 9 4 5 7 4 4 5 7 8 6 7 11 15 18 21 24 26 27 29 28 27 28 29 31 33 35 37 39 38 37 36 35 35 35 35 36 36 36 35 35 35 35 34 34 33 34 34 34 34 33 32 31 29 29 28 27 27 26 26 25 25 25 24 24 24 23 23 24 25 25 25 26 26 26 25 25 25 24 25 25 26 26 25 26
10 6 6 4 4 3 3 2 1 4 6 3 8 9 6 6 7 2 5 6 4 6 6 7 8 12 14 14 16 17 16 18 19 18 18 19 22 27 31 35 37 38 38 39 39 38 35 34 36 36 36 35 35 35 35 34 34 33 33 33 34 33 33 32 30 29 29 28 28 28 27 27 27 27 26 25 24 23 22 23 24 25 25 25 26 25 25 24 23 23 23 24 24 25 25 24 25
7 6 7 4 2 1 2 2 2 5 4 2 4 5 3 9 10 7 10 11 8 9 11 11 11 15 18 15 12 12 12 13 13 14 17 18 19 21 27 32 33 34 37 38 39 39 37 35 35 36 35 33 33 33 34 34 34 33 33 33 33 32 32 31 30 29 29 29 29 28 28 28 28 28 27 26 24 22 22 23 23 24 25 25 25 25 24 24 23 23 23 24 24 23 23 23 24
9 9 9 7 5 4 6 5 2 3 2 2 2 2 1 5 7 9 12 14 15 13 13 15 16 18 23 22 19 18 18 17 19 21 21 23 23 22 24 30 33 32 33 35 37 38 37 36 35 35 34 32 32 32 32 33 33 33 33 32 32 32 32 31 30 30 30 30 29 29 29 29 29 29 28 27 25 24 23 23 23 24 24 24 25 24 24 23 23 22 22 22 22 22 22 22 24
10 7 7 7 6 4 5 4 3 2 0 1 2 2 3 5 3 5 8 13 19 19 17 17 19 21 22 22 24 25 26 26 25 22 21 23 23 22 23 27 30 30 29 32 35 36 37 36 36 35 33 32 32 32 32 32 32 32 32 31 30 31 31 31 31 31 31 31 31 30 30 30 30 30 29 27 26 25 25 23 23 23 23 23 23 23 22 22 21 21 22 22 22 22 23 24 25
5 4 5 6 4 3 2 1 3 3 1 1 2 3 3 4 8 10 9 12 15 19 21 19 21 24 21 20 21 24 27 27 23 21 21 20 19 20 22 23 25 26 26 29 32 35 35 34 34 35 33 33 33 32 32 32 32 32 31 30 29 30 30 31 31 32 32 32 31 31 31 31 31 30 30 28 27 26 25 24 24 23 23 22 22 23 23 22 21 21 22 22 23 23 25 26 26
3 4 7 5 3 6 4 1 0 3 3 3 3 5 4 5 11 11 10 14 13 13 13 14 19 21 19 20 20 19 21 22 22 22 20 17 15 17 19 19 20 21 23 26 29 32 33 32 33 33 33 33 33 33 33 33 33 33 32 31 30 30 30 30 31 31 31 31 30 31 31 31 31 30 29 28 27 26 25 24 24 23 22 22 23 23 23 22 23 23 23 23 24 24 25 26 26
5 7 8 4 3 3 3 1 2 2 4 3 2 6 3 2 8 5 3 11 14 9 5 8 15 16 17 19 17 17 19 19 19 18 15 12 11 13 15 16 17 18 19 22 24 27 30 31 32 32 32 33 33 33 33 33 33 33 33 32 31 31 30 30 29 29 29 29 29 30 31 31 31 30 28 27 27 26 26 25 25 24 23 22 24 24 23 23 22 22 23 23 23 23 24 25 23
4 6 9 6 2 2 3 3 2 3 5 3 2 3 3 7 8 4 3 8 8 7 5 5 8 12 16 17 16 16 17 14 12 14 12 9 7 8 10 12 14 16 17 19 21 24 28 30 31 31 32 32 31 32 32 33 34 34 34 33 32 32 31 30 30 29 29 29 30 30 30 30 30 29 28 28 28 27 26 25 24 23 23 23 24 24 22 22 21 23 25 24 24 24 24 23 21
2 4 6 3 2 4 4 3 2 3 4 3 2 2 4 8 6 5 11 13 7 7 7 5 8 11 12 14 14 11 9 8 11 14 13 11 9 8 8 10 11 13 16 18 21 23 25 26 28 28 29 29 30 30 31 32 33 33 34 35 35 35 33 32 30 29 30 30 30 30 30 30 29 28 28 28 28 27 26 25 24 24 24 24 24 23 22 22 22 23 23 23 23 22 21 21 20
4 7 8 5 3 2 2 2 2 2 3 3 3 4 5 5 4 9 14 15 11 9 8 7 11 14 12 9 11 11 10 13 13 15 16 14 13 12 12 12 12 13 14 15 18 21 22 24 24 25 25 27 28 29 30 32 32 33 35 36 37 36 34 33 32 31 31 31 31 30 30 29 28 28 28 27 26 26 25 25 24 23 23 22 22 22 22 23 22 21 21 23 21 19 20 22 21
9 8 9 9 6 3 4 6 2 2 3 3 4 6 6 3 4 8 11 11 9 9 8 9 15 21 19 16 17 17 18 16 13 14 17 17 16 16 15 14 14 14 14 14 15 17 19 20 21 21 22 24 26 27 28 30 32 34 36 36 36 36 34 34 33 33 32 31 30 29 28 28 28 27 26 25 25 24 23 23 22 21 21 20 21 21 21 22 22 22 24 24 20 19 21 22 19
Wind_Direction
306 341 345 353 350 331 319 344 91 4 67 92 307 142 218 202 177 191 184 258 254 257 200 172 159 164 175 164 171 135 123 154 152 123 160 162 146 150 159 170 176 174 176 168 166 169 165 162 160 163 164 168 182 184 181 181 177 180 188 190 192 206 229 253 248 103 84 78 79 73 71 82 95 99 97 95 95 96 98 98 97 95 95 92 89 85 78 73 71 70 69 68 68 67 65 66 65
304 329 341 348 344 331 297 21 74 340 57 107 256 184 225 17 140 199 195 217 174 135 140 141 143 159 166 114 122 95 113 170 138 119 136 149 149 154 156 162 171 172 173 169 169 171 169 169 166 167 167 167 182 187 185 187 191 197 205 211 212 220 229 236 158 107 93 86 88 82 76 87 100 101 96 95 100 101 100 99 98 96 94 92 88 83 78 75 73 71 70 68 68 66 63 62 60
306 320 339 342 339 349 26 35 67 100 88 170 254 244 216 144 191 213 209 179 131 120 121 125 126 140 140 103 100 98 151 209 154 132 143 153 154 155 153 153 162 168 170 170 171 171 172 174 172 171 169 170 178 185 193 196 200 205 212 219 216 202 185 180 125 105 95 87 92 94 86 94 102 100 97 95 97 98 99 98 97 97 94 91 86 83 80 78 76 72 69 66 65 64 62 61 58
307 314 337 336 333 7 65 46 111 127 133 194 248 251 216 178 198 221 189 151 131 121 117 120 106 109 108 95 95 121 150 154 156 148 152 156 155 156 154 151 157 165 169 172 173 174 175 177 177 176 174 175 181 188 202 205 204 206 210 216 212 183 146 136 113 106 98 90 94 99 95 96 103 104 104 99 95 95 97 99 98 98 95 90 87 84 83 80 77 72 69 65 62 60 59 60 59
307 320 334 328 330 42 83 74 108 115 184 186 174 246 230 193 188 191 167 155 148 126 108 130 106 106 112 109 105 66 132 134 142 148 155 156 157 159 157 153 156 164 170 174 175 176 178 179 179 179 180 181 191 198 207 204 201 202 205 206 195 169 147 131 112 108 105 106 108 109 105 96 99 106 111 104 98 98 98 101 101 99 97 94 92 88 84 81 77 73 68 65 61 58 56 57 58
306 328 332 332 55 100 112 117 157 174 223 170 149 242 224 192 172 163 162 168 185 199 165 163 152 141 120 95 102 144 134 131 142 154 160 159 158 159 160 155 155 164 172 175 176 178 179 181 182 184 184 190 199 200 203 195 192 195 195 187 167 156 149 136 112 107 114 121 125 126 124 111 110 111 112 108 101 102 103 106 106 104 103 100 97 91 87 81 75 71 66 65 61 59 57 54 54
305 317 328 358 76 47 101 160 197 210 234 167 166 233 202 175 164 156 160 176 217 235 219 196 154 141 123 113 126 150 144 137 145 160 166 164 160 160 162 157 157 165 173 176 176 179 181 185 188 191 193 202 200 192 194 184 183 185 182 172 157 151 148 136 114 108 120 129 136 137 131 128 131 123 115 113 109 110 111 109 112 111 108 103 99 94 87 79 71 66 62 62 59 57 54 50 50
325 320 332 58 56 27 86 149 230 207 230 211 223 239 189 168 164 158 163 179 188 207 204 176 147 121 151 152 155 163 152 145 145 163 173 170 162 161 166 162 161 166 173 178 177 180 183 186 190 198 201 207 200 187 187 178 172 166 163 163 153 147 143 132 122 116 119 129 141 141 131 126 129 129 124 121 118 117 116 115 119 117 112 106 100 93 85 78 69 64 58 57 55 50 46 42 44
347 330 331 60 74 35 41 329 267 241 266 260 263 225 180 170 167 159 163 176 174 195 185 166 149 60 173 161 170 167 157 157 153 164 176 176 164 161 168 167 170 172 175 179 180 182 184 186 189 198 206 208 197 182 178 175 162 150 149 153 148 146 140 132 134 129 128 133 139 138 135 130 129 134 133 131 128 123 123 123 124 119 113 107 100 93 83 77 69 63 57 53 51 45 40 35 35
339 352 103 65 88 41 347 290 270 260 260 264 256 188 170 173 175 169 166 151 168 181 174 169 175 174 168 168 166 167 167 163 159 165 175 178 166 166 169 166 173 179 180 182 183 184 186 189 189 194 205 209 197 181 170 169 163 154 153 152 148 144 142 146 147 141 143 144 142 139 137 135 137 142 141 141 138 134 133 128 125 121 116 110 102 94 83 75 67 61 55 52 48 43 37 30 27
297 22 111 68 75 112 239 248 270 266 272 294 268 177 174 179 177 179 157 136 163 168 173 181 205 160 157 181 174 172 174 164 158 165 174 176 173 173 171 169 169 179 188 187 187 187 188 192 192 193 200 206 197 186 174 173 182 174 164 157 153 144 147 159 160 154 155 153 151 150 146 139 141 150 150 147 144 142 140 133 131 126 122 117 109 101 87 75 67 61 55 50 49 43 32 19 10
212 25 81 85 143 191 194 212 263 280 312 317 189 174 181 181 177 188 161 150 172 174 190 190 191 164 146 208 187 181 177 168 157 165 178 176 178 177 170 174 166 175 190 194 193 190 191 195 195 194 196 201 196 190 183 178 186 185 172 158 155 153 154 164 167 166 160 156 158 162 161 155 153 155 152 150 150 150 146 141 140 135 133 127 121 112 93 81 68 58 51 42 38 32 21 11 6
196 145 99 149 188 159 157 182 269 314 324 266 187 164 174 185 201 206 176 157 172 172 198 196 199 177 162 219 198 190 180 176 166 164 181 179 186 186 171 175 173 177 187 198 200 194 194 199 201 196 196 200 196 192 189 184 190 192 180 164 161 162 160 162 168 173 165 155 157 165 171 171 165 152 151 154 155 158 155 152 149 145 145 141 134 125 105 88 73 60 47 33 25 18 12 8 5
187 161 135 161 149 137 153 167 262 170 251 251 191 167 172 191 222 215 181 156 178 179 188 197 199 182 183 214 213 203 185 180 176 169 183 187 194 196 186 181 183 186 187 199 204 199 196 202 207 203 201 200 197 196 194 190 196 199 186 174 171 170 171 166 169 178 167 152 157 164 165 168 163 152 154 158 160 164 164 164 161 157 157 156 153 144 121 95 75 61 44 28 15 9 6 5 2
180 157 126 122 112 193 180 180 180 162 232 231 175 181 178 197 226 217 192 177 191 191 184 187 188 186 208 199 217 213 196 190 181 178 188 193 195 198 203 195 191 193 190 196 204 205 200 205 212 210 208 202 198 198 201 198 198 202 189 183 184 181 180 172 172 177 168 160 165 168 163 164 167 164 162 164 169 171 173 178 175 170 171 172 175 175 149 105 75 54 38 17 6 6 2 1 359
175 158 83 108 164 207 201 191 127 139 245 213 168 179 174 205 217 207 200 195 193 186 181 180 185 194 213 197 210 209 203 202 185 182 191 198 199 197 204 205 202 199 194 195 202 208 205 208 215 215 212 205 202 200 206 205 202 206 198 191 190 188 186 183 181 176 176 178 174 173 173 172 175 175 173 176 179 181 182 187 187 184 187 190 195 203 203 113 55 29 11 357 357 358 356 356 355
167 147 78 199 189 193 194 182 164 163 235 223 177 177 166 199 207 200 201 203 195 180 179 183 192 202 206 199 225 219 207 206 193 188 192 200 204 201 204 207 209 205 200 197 201 208 207 210 218 221 215 210 209 205 208 210 208 208 206 200 194 194 195 195 196 190 190 191 187 184 183 183 184 183 184 187 189 191 192 194 195 194 196 200 208 221 242 285 320 336 331 334 336 341 347 348 348
160 123 130 221 189 188 187 180 190 164 193 204 185 181 176 181 189 185 190 200 198 187 190 195 201 210 215 216 225 227 213 208 203 197 196 201 205 206 207 207 211 212 205 199 201 206 209 213 219 223 221 219 218 216 214 213 213 210 210 207 202 203 203 206 207 205 205 201 199 195 192 192 192 193 194 195 198 200 202 202 201 200 203 207 215 227 250 280 301 317 317 321 326 330 338 341 342
150 106 161 227 194 200 190 178 188 175 184 186 177 182 185 190 182 178 187 191 184 191 204 210 214 217 221 225 222 223 216 209 210 208 205 206 207 210 210 210 211 214 211 205 201 204 211 216 221 226 226 229 226 224 223 220 217 212 211 210 209 211 212 215 214 212 212 209 207 204 201 198 199 202 202 203 204 207 209 209 208 208 210 214 220 231 250 272 288 298 306 311 317 321 330 335 335
151 126 187 243 213 224 206 188 195 201 201 170 174 184 189 193 181 181 188 176 190 211 210 211 219 219 219 223 219 218 216 211 212 215 215 213 213 214 215 215 213 213 213 211 205 203 211 217 222 230 230 233 233 230 228 226 225 220 216 214 214 217 219 221 221 219 216 214 213 210 209 206 207 209 210 211 211 213 215 215 215 216 219 223 229 237 248 266 280 287 296 301 306 315 322 328 329
168 158 196 229 192 214 220 205 205 209 210 182 175 170 184 188 179 184 172 146 235 233 219 218 225 224 219 220 218 218 215 212 213 215 218 218 219 219 221 222 221 219 216 215 211 207 211 216 220 228 231 235 238 236 232 230 230 229 225 223 223 225 227 225 223 221 219 219 218 215 216 214 214 214 217 217 216 218 220 221 220 220 224 229 236 243 251 263 275 283 290 295 301 309 316 322 324
169 194 206 185 168 191 223 195 185 199 204 188 171 160 184 180 182 194 179 176 230 234 230 231 234 236 234 231 223 219 216 213 215 217 219 220 222 222 223 225 224 223 220 219 217 211 212 216 218 224 230 236 241 242 239 235 233 234 234 232 233 235 236 231 227 224 221 223 223 222 221 221 220 220 221 222 221 222 222 224 224 225 228 232 240 246 254 261 271 280 287 293 300 307 313 320 322
180 221 203 167 171 185 211 180 174 186 186 183 174 174 181 169 194 208 199 216 226 229 248 246 238 237 242 239 228 223 220 217 218 220 222 222 223 223 223 223 223 223 222 221 221 217 214 215 218 220 226 234 242 245 243 239 237 238 240 240 239 239 240 238 233 230 226 226 228 229 226 226 226 225 225 226 227 227 227 227 227 230 233 236 243 248 256 262 270 279 286 293 300 308 314 319 321
183 210 198 169 174 195 201 179 176 178 183 189 180 178 180 177 200 213 217 230 230 233 261 275 246 233 235 233 229 232 229 225 224 224 226 227 228 228 227 225 224 225 224 222 222 222 219 217 218 219 222 227 234 240 241 241 240 241 243 245 244 241 242 241 237 235 231 230 232 233 231 229 229 228 228 230 232 233 233 232 232 233 236 240 246 250 258 265 273 279 287 294 301 308 313 318 318
197 200 191 167 169 191 191 177 167 165 177 183 179 182 193 193 200 223 231 235 235 238 249 267 253 231 233 232 231 233 230 228 227 225 227 229 230 231 231 229 228 228 225 221 221 223 222 221 221 221 220 220 224 228 230 234 237 240 243 246 245 242 242 241 239 239 236 233 234 235 235 234 233 233 232 233 235 236 237 238 238 238 239 242 247 254 261 267 274 280 286 294 300 305 310 315 315
209 189 163 155 152 155 173 181 163 152 168 169 179 201 215 202 210 252 242 240 241 239 241 248 244 232 232 234 234 232 230 228 226 226 226 227 228 229 230 229 229 228 225 222 221 222 223 223 223 222 222 221 222 222 223 227 232 236 239 241 241 242 242 241 240 240 240 237 236 236 237 238 238 236 235 236 236 236 239 241 240 241 242 245 251 257 263 269 275 280 285 291 295 301 308 311 312
200 184 161 150 155 166 175 184 182 171 181 182 186 218 229 195 195 245 244 243 242 237 237 236 235 237 237 238 237 234 234 232 230 228 226 225 225 227 228 228 227 224 223 223 220 219 222 224 222 223 225 225 224 223 222 223 228 232 234 236 237 240 241 241 241 240 241 241 239 239 239 239 239 239 238 238 238 238 239 243 244 244 245 248 253 257 263 269 273 277 281 287 292 299 306 309 311
183 178 176 164 147 207 205 184 193 189 209 215 193 252 256 193 190 234 234 237 242 236 237 235 234 239 242 242 239 237 237 234 233 230 227 227 226 225 225 226 225 221 219 220 219 219 222 223 222 223 225 226 226 224 224 224 227 231 233 235 235 238 240 241 241 240 241 242 243 242 242 241 240 240 241 241 243 242 242 243 245 246 247 249 254 257 260 265 269 273 279 286 293 299 305 308 309
158 162 166 354 42 308 230 200 198 190 207 201 151 309 264 217 209 234 236 237 246 244 240 237 236 239 242 242 240 239 240 235 231 232 232 233 232 231 228 227 226 223 221 219 218 220 222 224 224 226 227 228 228 226 227 227 229 232 235 237 236 237 238 240 241 241 242 243 244 245 244 243 242 241 241 243 245 247 246 244 244 247 249 250 254 257 258 263 267 273 280 287 294 298 303 307 308
138 145 134 97 37 310 224 196 180 181 188 160 138 269 252 228 227 233 239 240 242 245 243 241 239 240 241 242 241 241 240 237 235 237 237 235 235 236 234 232 229 228 227 222 218 217 220 222 225 227 228 230 230 229 230 230 232 235 238 239 238 239 239 241 242 243 243 244 245 246 246 245 244 242 241 242 244 247 247 245 245 247 250 251 253 257 259 263 268 275 282 287 291 295 301 306 309
125 104 67 130 159 277 243 187 158 165 202 161 139 256 250 219 230 233 238 238 238 239 241 243 242 242 241 241 242 242 241 239 241 243 242 240 237 237 237 234 232 231 229 224 220 219 220 221 223 226 228 230 231 232 232 233 235 237 240 242 242 242 242 243 244 245 245 245 247 247 248 247 245 243 241 240 242 245 247 245 246 247 249 251 253 257 260 263 268 275 281 284 288 292 300 306 309
122 177 203 116 192 265 300 183 171 178 199 164 146 257 262 239 233 231 232 233 231 234 239 243 242 242 242 241 241 242 243 242 243 244 243 242 240 239 237 234 233 232 230 227 225 225 224 223 224 227 228 230 231 233 235 236 237 239 242 245 245 245 246 246 244 245 246 246 247 248 249 248 246 244 241 241 241 243 246 246 247 246 247 251 254 258 260 264 270 274 279 282 287 292 299 305 309
248 205 175 142 198 232 320 230 200 193 162 172 195 245 270 309 236 222 227 233 227 230 239 242 241 241 240 241 242 241 243 241 241 243 243 241 240 240 239 237 235 233 232 232 230 229 228 227 228 229 231 232 233 236 238 239 240 242 244 246 247 248 247 247 245 245 244 244 246 247 248 249 248 245 242 241 243 244 247 248 248 246 248 251 254 257 261 266 270 273 277 282 288 294 299 304 308
183 190 161 187 210 190 218 280 235 197 170 204 217 242 243 226 218 189 192 227 224 229 241 247 246 244 242 242 242 242 242 241 242 244 245 243 241 240 241 240 238 236 235 233 232 232 231 231 231 232 234 235 236 237 239 241 242 243 245 246 247 247 247 247 246 245 244 243 244 245 246 248 248 247 244 243 244 246 248 250 249 248 250 253 255 258 262 265 268 273 279 285 291 296 300 302 304
158 170 168 222 229 197 201 237 215 172 191 221 207 243 249 244 258 260 246 223 219 232 244 252 253 251 249 248 247 247 245 245 247 248 248 246 244 242 242 242 240 237 235 233 233 233 233 233 233 234 235 235 236 237 238 240 240 242 243 244 245 246 246 246 246 246 245 245 246 246 247 248 248 247 246 245 246 247 248 250 251 251 252 255 257 259 262 265 271 277 285 290 293 295 297 299 301
159 170 183 210 221 231 211 238 230 167 171 222 212 235 248 246 249 255 253 243 237 247 250 252 256 256 254 253 252 252 250 249 250 251 250 248 245 243 242 243 242 240 237 235 233 232 232 233 233 234 233 234 235 235 236 237 237 239 240 241 243 244 245 246 248 250 251 251 252 251 249 249 249 247 246 246 248 248 249 251 253 253 255 256 258 261 265 269 274 280 285 288 288 290 292 295 297
153 165 196 211 216 249 224 216 248 170 160 226 223 238 249 247 244 250 253 251 244 247 250 250 253 256 255 255 256 255 254 252 252 251 250 249 247 245 244 243 242 241 239 236 234 232 231 231 233 233 233 233 234 234 235 236 237 239 240 242 245 247 249 250 252 253 255 257 257 256 254 252 251 249 248 248 250 251 253 254 255 256 256 258 261 264 268 270 273 277 280 282 284 285 288 291 293
152 168 196 214 215 244 235 209 230 157 167 250 240 254 259 253 255 261 258 250 240 239 242 246 248 252 254 256 258 258 259 258 255 251 248 247 246 245 244 243 242 240 238 237 236 234 232 231 232 233 233 233 234 235 236 238 240 242 245 249 251 254 255 255 256 257 259 261 260 260 259 257 255 253 252 251 252 254 256 257 259 259 259 261 264 266 268 270 272 275 277 280 282 284 287 289 288
160 171 187 218 209 281 293 293 329 149 181 260 300 269 265 255 245 258 255 243 245 243 241 245 247 248 251 254 257 258 260 259 256 252 248 246 245 244 244 244 243 241 239 238 238 237 236 234 233 232 233 233 235 236 237 239 242 245 249 253 256 257 257 257 258 258 258 258 257 257 258 258 258 257 256 255 256 257 258 259 260 261 262 263 266 268 269 271 273 276 278 280 283 284 286 287 287
169 171 178 211 172 144 270 295 345 322 183 257 322 296 279 264 241 251 249 244 249 250 246 248 249 248 251 255 258 259 258 257 256 255 252 248 245 242 242 242 244 243 242 239 237 236 236 236 235 234 233 234 235 236 238 240 243 246 249 252 254 255 255 255 254 253 252 251 251 252 253 255 257 259 259 259 259 260 260 261 262 263 263 264 266 268 270 272 275 276 278 280 281 282 284 287 288
175 180 174 173 158 156 214 302 10 345 348 8 355 309 284 258 242 248 249 246 251 251 246 247 249 250 253 255 255 256 256 255 256 256 253 250 246 240 239 241 244 245 244 241 237 236 236 237 237 237 236 236 237 238 239 241 242 244 245 247 249 249 250 249 248 247 246 248 249 250 252 254 257 259 260 260 261 262 263 263 264 264 264 265 265 268 270 273 274 275 277 278 279 280 283 286 285
180 204 169 150 156 148 106 88 49 29 328 320 13 280 277 276 247 251 264 266 257 250 239 242 247 248 248 248 250 252 252 252 253 254 252 250 247 242 240 240 242 244 243 242 240 238 238 239 240 240 240 239 239 239 240 241 242 243 243 245 246 247 248 248 248 249 250 252 254 256 257 257 258 259 259 260 262 263 265 265 266 267 267 268 268 270 271 272 274 276 277 278 278 280 282 282 281
202 203 152 129 138 139 126 142 129 126 258 297 62 217 267 300 253 244 253 263 264 260 240 244 247 247 244 243 246 248 249 248 248 250 250 248 245 243 240 238 239 242 242 242 242 241 240 239 240 240 241 241 241 240 240 241 242 243 244 245 246 248 250 251 253 255 257 258 259 260 260 259 259 259 260 260 261 263 264 265 266 267 268 269 269 270 271 273 275 276 277 277 277 278 278 277 278
215 188 142 127 130 154 162 165 194 224 261 311 19 159 264 281 259 251 253 260 270 267 254 249 246 247 245 243 245 246 246 246 244 246 248 247 245 242 239 237 238 240 241 242 242 241 240 239 240 240 241 242 242 242 242 242 242 243 245 247 248 250 251 254 256 257 259 260 260 259 258 258 258 259 260 260 261 262 263 264 265 266 267 268 268 269 271 272 274 274 274 274 274 274 273 274 275
229 163 129 133 137 155 158 162 189 15 349 268 251 154 237 273 269 304 357 256 261 259 250 251 248 246 247 246 247 247 246 247 246 246 246 247 246 245 243 241 239 240 240 239 240 241 242 241 241 241 242 243 243 244 244 244 244 245 246 248 250 251 252 255 257 258 259 258 258 258 257 258 258 259 260 261 262 263 264 266 267 267 267 268 269 269 270 271 271 271 271 271 271 271 270 272 272
177 119 89 89 87 85 102 146 156 68 286 229 200 174 214 272 259 197 91 244 249 253 249 252 253 250 251 251 249 248 247 246 247 249 248 248 248 248 249 248 244 243 240 238 239 241 242 242 242 242 243 244 245 246 246 246 246 246 247 248 249 251 252 255 257 258 258 258 257 257 257 259 260 262 263 265 267 268 270 271 271 271 271 271 270 269 269 269 268 268 268 268 268 268 268 268 267
134 102 80 69 58 49 53 73 101 125 254 220 185 179 173 279 267 195 193 233 236 240 246 257 261 259 259 260 258 256 251 246 247 251 251 249 250 249 250 250 247 245 242 239 239 240 240 241 242 242 244 246 248 248 249 249 250 249 249 249 250 251 253 255 257 256 256 257 257 258 261 264 265 267 268 270 272 274 276 277 276 275 274 272 270 269 269 268 267 266 265 265 265 265 266 266 267
127 96 111 96 57 34 25 18 78 212 247 222 175 170 161 232 256 197 229 263 237 215 231 247 259 263 269 274 267 257 247 238 236 242 248 248 249 248 246 246 245 243 242 239 239 239 240 240 240 242 244 246 248 250 251 251 251 251 250 250 250 251 253 255 255 255 256 257 259 262 265 267 269 270 272 274 276 279 281 279 277 275 274 272 270 269 268 266 265 263 261 260 260 262 264 265 267
129 123 145 136 125 173 206 201 209 222 252 351 163 158 171 236 252 258 262 269 248 222 228 242 256 267 280 291 277 253 236 228 235 252 260 257 254 253 250 245 241 240 238 237 237 238 239 240 240 241 243 247 249 251 252 252 252 251 251 251 251 253 254 255 255 255 256 258 260 263 266 268 272 274 276 279 281 283 280 276 275 273 272 271 270 268 266 265 263 260 259 259 260 263 266 266 266
164 159 166 171 165 188 207 199 222 237 259 15 167 180 292 259 268 257 249 259 261 255 247 252 263 270 279 284 277 266 254 251 267 276 271 261 255 257 258 247 239 237 236 234 233 233 237 239 240 242 244 247 250 252 253 253 253 253 252 253 253 254 255 255 255 256 258 260 262 265 268 271 275 277 280 284 285 284 279 275 272 269 268 267 267 267 266 264 261 258 258 259 261 268 271 269 269
184 167 168 185 179 192 205 193 202 210 358 14 201 225 198 188 250 254 236 255 268 275 272 265 268 271 274 276 272 267 263 265 273 273 267 259 251 254 258 247 236 235 235 233 231 230 233 237 239 241 243 246 249 251 253 253 253 254 254 254 254 254 255 255 255 256 258 261 264 267 270 273 277 280 283 285 284 281 278 274 270 266 264 263 262 263 262 262 261 260 262 263 264 268 270 271 272
196 137 160 202 187 152 129 178 179 147 120 225 207 243 215 214 273 276 260 261 259 263 267 267 269 272 273 273 270 265 262 265 268 265 263 255 245 248 250 238 228 229 231 231 229 227 230 234 237 238 240 244 248 250 252 252 252 253 254 255 256 256 256 256 256 257 260 263 266 269 272 275 278 280 281 281 280 278 276 272 269 265 262 260 259 258 257 257 256 256 259 261 263 267 271 274 275
170 163 182 195 126 115 108 222 50 93 207 220 197 249 298 309 283 270 252 257 257 250 253 259 266 270 272 270 268 263 259 262 266 264 257 243 236 242 238 226 221 222 225 227 226 225 228 231 234 236 238 242 246 249 250 251 252 253 254 255 256 257 258 258 259 261 264 266 268 270 272 274 275 276 278 278 277 275 271 268 266 263 260 258 257 257 257 257 255 254 255 257 259 261 266 269 269
142 189 181 130 73 87 101 157 23 59 235 259 220 239 272 266 268 288 222 243 258 261 259 269 266 260 260 264 264 261 264 270 266 252 236 224 229 232 225 221 220 219 222 224 224 225 227 231 234 236 239 243 246 249 251 252 252 253 253 254 256 257 259 261 262 263 265 267 267 267 269 270 272 274 274 273 271 269 267 265 264 262 259 257 257 255 254 255 256 257 256 259 266 267 266 267 267
150 180 161 137 160 201 151 171 192 194 228 274 292 265 234 210 233 285 256 230 243 270 295 304 277 258 254 259 264 267 271 272 246 219 211 213 217 216 214 216 216 218 221 220 220 223 225 229 233 236 239 242 246 249 250 251 252 252 253 253 254 256 258 260 262 263 264 264 264 265 266 268 270 270 268 267 266 265 265 264 262 260 258 257 257 256 255 256 258 259 254 252 259 262 260 263 267
50 124 152 164 193 184 177 172 162 200 219 255 311 311 240 224 206 199 239 247 241 261 286 292 275 270 265 258 254 254 265 269 240 222 220 218 219 225 223 216 215 217 219 218 219 221 223 226 230 233 236 239 242 245 246 248 249 249 250 250 251 253 255 258 260 261 261 261 262 264 266 268 267 264 263 263 265 265 264 262 259 257 256 255 255 255 254 253 252 257 259 254 250 250 253 259 265
147 159 176 198 187 135 174 185 132 155 190 198 251 268 250 242 193 181 222 249 250 246 256 257 257 265 272 256 232 230 263 283 266 244 237 230 229 239 240 236 235 230 229 228 225 225 224 226 228 230 233 237 240 242 244 245 246 247 247 247 249 251 253 256 258 258 258 259 261 263 264 263 260 260 261 264 265 264 262 259 255 254 253 253 255 255 255 254 250 249 254 254 249 247 255 259 261
175 181 182 188 182 135 183 215 182 123 191 178 199 258 270 243 205 200 216 239 252 245 241 246 252 255 260 257 248 257 275 281 264 246 245 239 236 241 244 245 246 244 242 239 235 232 229 228 229 232 237 241 244 245 246 246 245 245 245 246 247 249 251 253 253 254 255 258 260 260 258 256 256 259 262 262 261 258 256 254 253 253 253 254 257 258 257 257 255 250 249 249 245 244 250 254 254